Location: La Chapelle
(48.3135°N, 1.3085°W)
Time: 03:12:15
(UTC+00:00)

Nadezhda 3 Rocket - Pass Details

Date: 03 March 2021
Orbit: 957 x 999 km, 82.9° (Epoch: 16 April)

Event Time Altitude Azimuth Distance (km) Brightness Sun altitude
Rises 19:11:37 0° 348° (NNW) 3,725 7.3 -13.9°
Reaches altitude 10° 19:14:09 10° 347° (NNW) 2,775 6.6 -14.3°
Maximum altitude 19:20:29 69° 266° (W) 1,068 4.4 -15.4°
Drops below altitude 10° 19:26:47 10° 184° (S) 2,761 6.3 -16.4°
Sets 19:29:18 0° 182° (S) 3,705 7.0 -16.8°
